Location: Melbourne
(37.8120°S, 144.9677°E)
Time: 02:47:15
(UTC+10:00)

ISS - Visible Passes

Search period start: 19 April 2014 00:00
Search period end: 29 April 2014 00:00
Orbit: 414 x 419 km, 51.6° (Epoch: 18 April)

Date Brightness Start Highest point End Pass type
(mag) Time Alt. Az. Time Alt. Az. Time Alt. Az.
20 Apr -0.5 05:11:09 11° S 05:11:09 11° S 05:11:31 10° S visible
25 Apr -0.6 05:58:42 10° SSW 06:00:29 14° SSE 06:02:16 10° SE visible
26 Apr -0.4 05:10:56 10° S 05:11:36 11° SSE 05:12:27 10° SSE visible
27 Apr -1.3 05:57:31 10° SSW 06:00:21 24° SSE 06:03:10 10° E visible
28 Apr -0.9 05:10:45 16° S 05:11:28 17° SSE 05:13:48 10° ESE visible
